Wind_Speed
8 8 7 7 8 8 8 9 9 9 9 8 9 9 8 7 7 7 7 6 6 5 6 5 5 5 5 4 4 4 3 3 2 1 2 3 2 2 2 2 2 2 2
8 8 8 7 8 8 8 9 8 8 9 9 8 8 9 8 7 7 7 6 6 6 5 5 5 4 4 4 4 3 3 3 2 2 2 2 2 2 1 1 2 2 3
8 8 8 7 8 8 8 8 8 8 8 8 8 7 8 8 7 7 6 6 6 6 5 5 4 4 3 3 3 2 2 2 2 2 2 2 1 1 1 1 1 2 2
7 7 8 8 8 8 8 8 7 7 8 8 7 7 7 6 7 6 6 6 6 6 6 5 4 3 3 2 2 1 2 1 1 1 1 1 1 1 1 1 1 1 2
6 6 7 8 7 8 8 7 7 7 7 7 6 6 6 6 6 6 5 6 5 5 5 4 4 3 3 2 1 1 1 0 0 1 1 1 0 0 1 1 1 1 2
7 6 7 7 7 8 8 8 7 7 7 7 6 6 6 6 5 5 5 5 6 5 4 4 3 3 2 1 1 1 1 1 1 1 1 1 0 1 1 2 2 2 2
8 7 8 8 8 9 9 9 8 7 7 7 7 7 6 5 5 5 4 4 5 4 4 4 3 2 2 2 2 1 2 2 2 1 1 1 1 1 2 3 3 3 3
8 9 9 8 9 9 9 9 8 8 7 6 6 6 6 5 4 4 3 3 3 3 3 3 3 2 2 2 2 3 3 2 2 2 1 1 2 2 3 3 3 3 4
9 10 9 9 9 9 8 8 8 8 7 6 6 5 5 5 4 4 4 3 3 3 2 3 3 3 3 2 3 3 3 2 2 2 2 2 2 3 3 4 4 4 5
10 10 9 8 8 8 8 8 7 7 7 6 6 6 5 5 5 4 3 3 3 2 2 3 3 3 3 3 3 3 3 3 3 3 3 3 3 4 4 4 5 5 5
10 10 9 9 8 8 8 7 7 6 6 6 6 5 5 5 4 4 3 3 3 2 2 2 3 3 3 3 3 3 4 4 4 4 3 4 4 5 5 5 5 5 6
11 10 9 9 8 8 8 7 7 6 5 5 5 5 5 4 4 4 3 3 3 3 2 3 3 3 3 3 3 4 4 4 3 4 4 4 5 6 6 6 6 6 6
9 9 9 9 8 8 7 6 6 5 5 5 5 4 4 4 3 3 3 3 3 3 2 3 4 4 4 4 4 5 4 4 4 4 4 5 5 6 6 6 6 6 7
8 8 8 8 7 7 6 5 5 5 4 4 4 3 3 3 3 3 4 3 3 3 3 3 4 4 4 5 5 5 5 5 5 5 5 5 5 5 6 6 6 7 7
8 7 7 7 6 5 5 5 4 5 4 4 4 3 3 3 2 3 4 4 4 4 4 4 4 4 5 6 6 6 6 5 6 6 6 5 6 6 7 7 7 6 6
7 7 6 6 5 5 4 4 4 4 4 4 3 3 3 3 3 3 4 4 5 5 5 4 5 5 5 6 6 6 6 6 7 7 7 7 7 7 7 7 7 7 7
7 6 6 6 6 5 5 4 4 4 4 4 4 4 4 4 4 4 5 5 6 5 5 6 6 6 6 7 7 7 7 7 7 8 8 8 8 8 8 8 8 8 8
7 7 6 6 6 5 5 5 5 4 4 4 4 4 5 5 5 5 6 6 6 6 6 6 7 7 7 7 8 8 8 9 9 8 9 9 9 9 9 9 9 9 9
7 7 6 6 6 6 6 6 6 5 5 5 5 6 6 6 7 7 7 8 8 7 7 7 8 8 8 9 9 9 9 10 10 10 10 10 10 11 11 11 11 10 10
7 7 6 6 6 6 6 6 6 7 7 7 7 7 7 7 8 8 9 9 9 9 9 9 9 9 10 10 10 10 10 10 11 11 11 11 12 12 12 12 12 12 12
7 7 7 7 6 6 6 7 7 8 8 8 7 8 8 8 9 9 10 11 10 10 10 10 11 11 11 11 11 12 11 12 12 13 12 12 13 13 13 13 14 14 14
7 7 7 7 7 7 7 8 8 8 9 9 9 9 9 9 10 11 10 11 11 12 12 12 12 12 12 12 12 13 13 13 14 14 14 13 13 13 14 15 16 15 15
7 7 7 8 8 8 8 9 9 9 9 9 10 10 10 10 12 12 12 12 13 13 12 13 14 14 14 13 13 13 13 14 15 16 16 15 15 15 15 15 16 16 16
7 8 8 9 9 9 9 10 10 10 10 10 11 11 11 12 12 12 13 14 14 14 14 14 15 16 16 16 15 14 15 16 16 17 17 17 17 16 16 17 17 17 17
8 9 10 10 10 10 10 11 10 10 11 11 11 11 13 13 14 14 15 15 15 16 16 17 17 17 18 17 17 17 17 17 18 18 18 18 17 17 18 18 18 19 19
8 9 11 11 10 10 10 11 12 12 12 12 13 13 14 15 15 16 16 17 18 18 18 18 18 18 18 18 18 18 19 19 19 19 19 18 18 18 19 19 19 19 20
Wind_Direction
80 83 81 82 89 93 93 92 92 89 84 79 82 87 86 92 88 82 83 78 72 78 86 98 103 95 87 89 100 108 111 108 108 101 100 103 105 115 120 153 180 192 178
79 84 84 86 88 90 92 94 91 87 83 78 83 85 88 92 90 85 84 80 76 87 94 100 94 89 86 93 97 105 104 97 80 84 99 98 102 110 111 141 186 192 189
74 87 92 89 86 86 90 91 91 87 83 77 78 78 84 94 93 87 81 82 80 86 95 95 88 85 85 82 83 95 106 98 93 85 88 83 87 99 105 137 189 209 204
74 88 92 91 87 86 88 91 91 86 81 77 74 75 76 87 90 80 79 83 85 82 86 89 80 67 75 83 68 91 119 120 106 79 77 71 79 107 136 146 188 218 216
74 87 90 89 85 88 87 89 87 84 81 76 73 74 81 81 81 74 78 75 77 81 79 75 72 64 69 90 70 110 119 132 298 33 20 16 73 203 220 214 211 217 208
74 84 89 84 87 89 88 86 85 81 82 79 74 73 76 80 84 76 76 74 72 72 76 71 69 66 60 48 63 83 41 15 337 335 342 340 264 237 262 271 250 233 229
78 83 86 86 86 90 90 91 88 86 82 78 75 77 73 77 84 84 85 74 63 58 57 55 46 46 36 26 50 40 31 13 348 347 345 345 295 279 286 286 274 255 237
79 87 89 86 89 91 91 87 84 84 80 73 71 69 65 70 85 92 92 75 59 54 46 45 25 22 12 28 35 28 22 11 353 336 323 325 314 296 296 296 285 267 252
81 85 89 87 86 92 90 87 82 79 75 71 65 67 69 73 84 87 69 63 60 44 40 29 16 18 25 16 8 6 8 1 347 323 319 316 312 302 302 299 290 276 258
80 80 83 82 84 90 90 89 83 76 69 69 69 71 73 74 73 69 58 45 47 45 34 15 11 13 19 9 350 345 346 350 340 327 318 311 307 306 306 296 290 280 267
73 74 75 77 78 83 82 82 80 72 69 69 73 73 77 75 66 60 54 41 40 33 15 19 28 13 6 352 334 324 323 325 328 328 322 311 308 305 302 295 289 281 273
68 70 73 74 73 76 78 76 71 61 59 59 62 67 68 65 57 54 49 40 31 18 12 8 1 353 346 336 328 318 313 310 317 321 319 312 309 308 303 296 293 283 275
70 70 73 73 71 72 74 71 66 57 49 47 49 57 56 52 45 37 30 33 29 24 11 346 335 333 334 331 322 314 308 304 308 309 310 309 310 309 300 299 299 290 279
71 69 67 65 62 63 63 60 57 52 40 36 38 40 38 33 28 21 21 26 17 14 357 339 329 330 326 326 321 321 318 305 305 310 311 310 309 310 305 301 299 294 284
67 68 66 61 54 51 49 47 44 40 34 24 17 12 3 5 2 4 17 7 355 347 341 338 329 325 323 319 321 326 324 317 308 309 308 307 311 312 311 305 299 293 290
64 64 62 54 48 45 36 30 30 27 20 17 12 3 358 357 344 339 341 340 338 335 334 333 331 324 314 315 317 320 319 314 307 304 304 305 309 308 308 304 298 291 290
54 56 52 48 44 42 33 24 19 12 5 6 360 355 349 342 337 331 330 328 323 319 321 321 320 321 318 311 309 310 309 308 307 301 300 297 298 298 300 298 293 284 282
48 45 40 39 37 30 21 14 5 353 343 339 335 331 327 326 326 325 320 319 317 311 309 312 318 316 314 312 309 303 302 298 296 297 296 294 293 290 291 291 287 283 281
38 36 29 20 18 14 10 5 354 341 330 322 318 315 314 316 316 314 312 310 309 305 304 308 309 311 309 304 300 300 298 295 293 295 295 292 290 288 288 288 286 282 280
26 23 14 6 3 359 355 349 341 333 328 324 319 314 312 309 308 306 307 307 306 303 302 301 300 301 303 304 299 296 295 294 292 293 293 292 290 289 287 287 285 282 280
14 10 3 355 353 350 343 336 333 329 324 321 317 311 304 304 304 303 303 301 304 306 302 298 297 298 299 301 298 295 292 291 290 291 293 292 289 286 283 282 282 281 281
4 360 352 348 347 344 339 331 327 325 322 319 317 310 305 303 300 299 300 302 306 305 301 296 294 296 296 297 294 291 290 289 288 287 289 290 286 283 280 280 281 282 280
349 349 345 339 331 330 329 325 322 320 319 318 315 309 304 306 305 301 300 301 300 301 296 295 295 295 294 294 292 290 288 287 287 287 288 289 287 284 284 283 283 283 280
343 343 338 331 326 320 320 319 316 314 316 316 315 309 306 306 307 304 300 299 297 297 295 297 298 295 293 292 291 290 290 287 287 287 287 286 285 284 284 284 283 282 281
343 339 339 333 326 317 311 314 317 313 311 312 313 313 311 308 308 306 302 300 298 297 296 296 294 293 290 289 291 291 291 289 289 287 285 286 284 283 284 284 282 280 281
337 335 336 336 328 318 311 312 312 311 311 311 311 312 311 310 309 308 304 301 299 297 295 293 293 292 289 286 287 291 292 290 291 288 286 285 283 283 285 284 282 280 280
Height
5874 5874 5874 5874 5874 5874 5874 5875 5875 5876 5876 5876 5876 5877 5877 5877 5878 5878 5879 5879 5879 5879 5879 5880 5880 5880 5880 5880 5881 5881 5882 5882 5882 5883 5883 5883 5883 5884 5884 5884 5884 5885 5885
5876 5875 5875 5875 5876 5875 5876 5876 5877 5877 5877 5877 5878 5878 5878 5878 5879 5880 5880 5880 5880 5880 5880 5880 5881 5881 5881 5882 5882 5882 5882 5883 5883 5883 5883 5883 5884 5884 5884 5884 5884 5885 5885
5877 5876 5876 5877 5877 5877 5877 5877 5878 5878 5878 5878 5879 5879 5879 5880 5880 5881 5881 5881 5881 5881 5881 5881 5882 5882 5882 5882 5882 5883 5883 5883 5884 5884 5884 5884 5884 5884 5884 5884 5885 5885 5885
5878 5878 5878 5878 5878 5878 5878 5878 5879 5879 5879 5880 5880 5880 5881 5881 5881 5882 5882 5882 5882 5882 5882 5882 5883 5883 5883 5883 5883 5883 5883 5884 5884 5884 5884 5884 5884 5885 5884 5884 5885 5885 5885
5879 5879 5879 5879 5879 5879 5880 5880 5880 5880 5880 5881 5881 5881 5882 5882 5882 5883 5883 5883 5883 5883 5883 5884 5883 5884 5884 5884 5884 5884 5884 5884 5884 5885 5885 5885 5885 5885 5885 5885 5885 5885 5885
5880 5880 5880 5880 5880 5880 5881 5881 5881 5881 5881 5882 5882 5882 5882 5883 5883 5883 5884 5884 5884 5884 5884 5884 5884 5884 5884 5884 5884 5884 5884 5884 5884 5885 5885 5885 5885 5885 5885 5885 5885 5885 5885
5881 5881 5881 5881 5881 5882 5882 5882 5882 5882 5883 5883 5883 5883 5883 5883 5884 5884 5884 5885 5885 5885 5885 5885 5885 5885 5885 5884 5884 5884 5885 5885 5885 5885 5884 5884 5885 5885 5885 5885 5884 5884 5884
5883 5883 5883 5883 5883 5883 5883 5883 5884 5884 5884 5884 5884 5884 5884 5884 5884 5884 5885 5885 5885 5886 5886 5885 5885 5885 5885 5885 5885 5885 5885 5885 5885 5885 5884 5884 5884 5884 5884 5884 5884 5884 5884
5885 5884 5884 5884 5884 5884 5885 5885 5885 5885 5885 5885 5885 5885 5885 5885 5885 5885 5886 5886 5886 5886 5886 5886 5885 5885 5885 5885 5885 5885 5884 5884 5884 5884 5884 5884 5883 5883 5883 5883 5883 5883 5883
5886 5886 5886 5886 5886 5886 5886 5886 5886 5886 5886 5886 5886 5886 5886 5886 5886 5886 5886 5886 5886 5886 5886 5886 5885 5885 5885 5885 5885 5884 5884 5884 5884 5883 5883 5883 5883 5883 5882 5882 5882 5882 5882
5888 5888 5888 5887 5887 5887 5887 5887 5887 5887 5887 5887 5887 5887 5886 5886 5886 5886 5886 5886 5886 5886 5886 5886 5885 5885 5885 5885 5885 5884 5884 5883 5883 5883 5883 5882 5882 5882 5881 5881 5881 5881 5880
5890 5890 5889 5889 5889 5889 5889 5888 5888 5888 5888 5888 5887 5887 5887 5887 5887 5887 5886 5886 5886 5886 5886 5885 5885 5885 5885 5884 5884 5883 5883 5882 5882 5882 5881 5881 5881 5881 5880 5880 5880 5879 5879
5891 5891 5891 5890 5890 5890 5890 5889 5889 5889 5889 5888 5888 5888 5888 5887 5887 5887 5886 5886 5886 5886 5886 5885 5885 5884 5884 5883 5883 5882 5882 5881 5881 5880 5880 5880 5880 5879 5879 5878 5878 5878 5877
5893 5892 5892 5892 5891 5891 5891 5891 5890 5890 5889 5889 5888 5888 5888 5888 5888 5887 5886 5887 5886 5886 5886 5885 5884 5884 5883 5883 5882 5881 5880 5880 5880 5879 5879 5879 5878 5878 5877 5877 5876 5876 5875
5894 5894 5893 5893 5892 5892 5892 5891 5891 5891 5890 5890 5889 5889 5888 5888 5888 5887 5887 5887 5886 5886 5885 5884 5884 5883 5883 5882 5881 5880 5880 5879 5878 5878 5877 5877 5877 5876 5876 5875 5875 5875 5874
5895 5894 5894 5894 5893 5893 5892 5891 5891 5891 5890 5890 5889 5889 5888 5888 5888 5887 5887 5886 5886 5885 5884 5884 5883 5882 5882 5881 5880 5879 5879 5878 5877 5877 5876 5876 5875 5875 5874 5873 5873 5873 5872
5896 5895 5895 5894 5894 5893 5893 5892 5891 5891 5890 5890 5889 5889 5888 5888 5887 5887 5886 5886 5885 5884 5884 5883 5882 5881 5880 5880 5879 5878 5877 5877 5876 5875 5875 5874 5873 5873 5872 5871 5871 5870 5870
5897 5896 5895 5895 5894 5894 5893 5892 5891 5891 5890 5889 5889 5888 5887 5887 5886 5886 5885 5885 5884 5883 5882 5881 5881 5880 5879 5878 5877 5877 5876 5875 5874 5873 5873 5872 5871 5871 5870 5869 5868 5868 5867
5897 5896 5896 5895 5894 5894 5893 5892 5892 5890 5890 5889 5888 5887 5887 5886 5885 5884 5884 5883 5882 5881 5881 5880 5879 5878 5877 5876 5875 5875 5874 5873 5872 5871 5870 5869 5869 5868 5867 5866 5866 5865 5865
5897 5897 5896 5895 5894 5893 5893 5892 5891 5890 5889 5888 5887 5886 5885 5884 5884 5883 5882 5882 5880 5879 5879 5878 5877 5876 5875 5874 5873 5872 5871 5871 5870 5869 5868 5867 5866 5865 5864 5864 5863 5862 5862
5897 5896 5895 5894 5894 5893 5892 5891 5890 5889 5888 5887 5886 5885 5884 5883 5883 5882 5881 5880 5879 5877 5876 5875 5874 5873 5872 5871 5870 5870 5869 5868 5867 5866 5865 5864 5863 5862 5861 5860 5859 5859 5858
5897 5896 5895 5893 5892 5891 5891 5890 5889 5888 5887 5886 5884 5883 5883 5882 5881 5880 5879 5878 5876 5875 5874 5873 5871 5871 5870 5869 5868 5867 5866 5866 5864 5863 5862 5861 5860 5858 5857 5857 5856 5855 5854
5896 5895 5893 5892 5891 5890 5889 5888 5887 5886 5885 5884 5883 5882 5880 5880 5879 5878 5876 5875 5874 5872 5871 5870 5869 5868 5866 5865 5864 5863 5862 5862 5861 5860 5858 5857 5856 5855 5854 5853 5852 5851 5850
5895 5893 5892 5890 5889 5888 5888 5887 5886 5885 5883 5882 5881 5880 5878 5877 5876 5875 5874 5872 5871 5869 5868 5867 5865 5864 5863 5862 5860 5859 5859 5857 5857 5855 5854 5853 5852 5851 5850 5849 5848 5847 5846
5893 5892 5890 5888 5887 5886 5886 5885 5884 5883 5881 5880 5879 5877 5876 5875 5873 5872 5870 5869 5868 5866 5865 5863 5862 5861 5859 5858 5857 5855 5854 5853 5852 5851 5850 5849 5848 5847 5845 5845 5844 5842 5841
5892 5891 5889 5887 5886 5885 5884 5883 5882 5880 5879 5878 5877 5875 5874 5872 5870 5868 5867 5866 5864 5862 5861 5859 5858 5856 5854 5854 5852 5851 5850 5848 5847 5846 5844 5844 5843 5842 5841 5840 5839 5838 5837